This is the latest recevied weather packets stored in our database for station/object YO8PIC-4. If no packets are shown the sender has not sent any weather packets the latest 1 day(s).
| Time | Temp. | Humidity | Pressure | Rain* | Wind** | Luminosity | Snow |
|---|---|---|---|---|---|---|---|
| 1778090545 | 27.78° C | 47% | 1009.9 hPa | - | - | - | - |
| 1778089945 | 27.78° C | 46% | 1009.8 hPa | - | - | - | - |
| 1778088186 | 28.33° C | 45% | 1009.6 hPa | - | - | - | - |
| 1778087586 | 28.33° C | 45% | 1009.5 hPa | - | - | - | - |
| 1778086986 | 28.33° C | 45% | 1009.5 hPa | - | - | - | - |
| 1778083385 | 27.78° C | 45% | 1009.1 hPa | - | - | - | - |
| 1778082785 | 27.78° C | 44% | 1009.1 hPa | - | - | - | - |
| 1778079184 | 28.33° C | 43% | 1009.1 hPa | - | - | - | - |
| 1778078584 | 28.89° C | 43% | 1009.2 hPa | - | - | - | - |
| 1778074983 | 27.22° C | 44% | 1009.2 hPa | - | - | - | - |
| 1778074383 | 27.78° C | 43% | 1009.2 hPa | - | - | - | - |
| 1778073783 | 27.78° C | 43% | 1009.2 hPa | - | - | - | - |
| 1778070182 | 26.67° C | 45% | 1009.6 hPa | - | - | - | - |
| 1778068381 | 26.67° C | 45% | 1009.5 hPa | - | - | - | - |
| 1778064771 | 26.67° C | 46% | 1010.2 hPa | - | - | - | - |
| 1778064171 | 26.11° C | 46% | 1010.3 hPa | - | - | - | - |
| 1778063571 | 26.11° C | 46% | 1010.4 hPa | - | - | - | - |
| 1778062971 | 27.22° C | 45% | 1010.4 hPa | - | - | - | - |
| 1778060570 | 27.22° C | 45% | 1010.7 hPa | - | - | - | - |
| 1778059970 | 26.11° C | 47% | 1010.9 hPa | - | - | - | - |
| 1778059370 | 26.67° C | 45% | 1010.8 hPa | - | - | - | - |
| 1778058770 | 26.67° C | 46% | 1010.9 hPa | - | - | - | - |
| 1778058169 | 26.67° C | 45% | 1010.9 hPa | - | - | - | - |
| 1778057569 | 27.22° C | 43% | 1010.9 hPa | - | - | - | - |
| 1778056363 | 26.67° C | 36% | 1010.9 hPa | - | - | - | - |
* Rain since midnight (hover to see other rain measurements)
** Current wind speed in m/s (hover to see current wind gust speed)